Terminal Aerodrome Forecast
Issued by NWS Miami, FL

Home | Current Version | Previous Version | Text Only | Print | Product List | Glossary On
Versions: 1 2 3 4 5 6 7 8 9 10 11 12 13 14 15 16 17 18 19 20 21 22 23 24 25 26 27 28 29 30 31 32 33 34 35 36 37 38 39 40 41 42 43 44
000
FTUS42 KMFL 310534
TAFPBI
TAF
KPBI 310534Z 3106/0106 VRB03KT P6SM FEW040 SCT150 BKN250
     FM311400 15008KT P6SM VCSH SCT030 SCT060 BKN250
     FM311700 15010KT P6SM VCTS SCT030CB BKN050 BKN250
     FM010000 17007KT P6SM SCT030 BKN100 BKN250=

USA.gov is the U.S. government's official web portal to all federal, state and local government web resources and services.